Vorticity
14 15 14 13 12 10 9 9 9 9 9 10 10 10 11 11 11 11 11 11 11 11 11 11 11 12 12 12 11 11 11 11 10 10 10 10 10 10 9 9 8 8 7 7 6 6 7 9 14 19 22 24 21 20 18 17 14 12 12 13 14 15 16 17 16 14 11 9 9
15 15 14 13 11 10 9 8 8 9 9 10 10 10 11 11 11 11 11 11 11 11 11 11 11 11 11 12 12 11 11 11 10 10 10 10 10 10 10 10 9 9 9 8 7 6 6 9 14 20 25 27 24 22 19 16 13 11 11 13 15 16 18 17 16 13 11 8 7
14 14 13 12 10 9 8 8 8 9 9 10 10 11 11 11 11 11 11 11 11 11 10 10 11 11 11 11 11 11 11 10 10 11 10 10 10 10 10 10 11 10 10 10 8 6 6 9 16 24 29 30 27 23 17 11 11 11 13 14 17 18 19 19 17 15 13 10 7
15 14 13 11 10 9 8 8 8 9 9 10 10 10 11 11 11 11 11 11 11 10 10 10 10 10 10 10 11 11 11 10 10 11 11 11 11 11 11 11 11 12 11 11 8 6 6 10 20 30 35 34 28 20 13 7 8 10 12 15 18 19 20 19 17 16 16 15 12
15 14 12 11 9 9 8 8 9 9 9 10 10 10 10 10 10 10 10 10 10 10 10 10 10 10 10 10 10 10 11 11 11 11 11 12 12 12 11 11 12 12 12 11 8 6 7 14 28 37 39 33 22 13 7 3 6 9 12 15 17 18 19 17 15 15 16 17 16
14 13 12 10 9 8 8 8 9 9 9 9 10 10 10 10 10 10 10 10 10 10 10 10 10 10 10 10 10 10 11 11 11 11 12 12 13 12 12 12 12 13 13 12 7 6 10 22 36 39 34 22 12 7 4 4 7 11 14 17 18 18 17 14 13 13 14 16 17
14 12 11 10 9 8 8 8 9 9 10 10 10 11 11 11 11 11 11 11 10 10 9 9 9 9 9 9 9 10 10 11 11 11 12 12 13 13 13 12 12 13 13 11 7 7 15 32 39 34 21 8 7 9 11 12 13 15 16 18 19 18 15 12 11 11 13 15 17
14 12 11 9 9 8 8 9 9 10 10 11 11 11 11 11 11 11 11 10 10 10 10 10 10 9 9 9 9 10 10 10 11 11 12 12 13 13 13 13 13 13 12 11 6 10 21 40 37 23 8 2 11 19 23 22 20 18 17 18 18 17 14 11 11 12 13 15 16
13 12 11 9 9 9 9 9 10 10 11 11 11 11 11 11 11 11 11 11 11 10 10 10 10 10 9 9 10 10 10 10 10 11 12 12 13 13 14 14 14 13 12 9 6 13 27 43 31 13 -2 -5 8 20 26 25 20 17 17 17 16 15 12 10 10 11 13 15 15
13 12 11 10 9 9 9 9 10 11 11 11 11 11 11 11 11 11 11 10 10 10 10 10 10 10 10 10 10 10 10 10 10 11 11 12 13 14 14 15 14 13 12 8 7 17 31 43 25 5 -10 -13 4 17 24 21 16 14 13 14 13 11 9 8 8 9 11 13 14
13 12 11 10 9 9 9 10 10 11 11 11 11 11 11 11 10 10 10 9 10 10 11 10 10 10 11 11 11 11 11 11 11 11 12 12 13 14 15 15 14 13 11 9 10 21 35 42 20 -1 -15 -17 6 19 23 16 11 10 10 11 11 10 8 6 6 6 8 10 13
13 12 11 10 9 9 9 10 11 11 11 11 11 11 11 11 10 10 10 10 11 11 11 11 11 11 12 12 12 12 11 11 12 12 12 13 14 15 16 16 13 12 11 12 15 26 36 40 18 -2 -15 -14 10 20 20 13 10 10 10 11 11 10 7 5 4 4 6 10 13
13 12 11 10 10 10 10 11 11 11 11 11 11 11 10 11 10 10 11 12 12 12 12 12 13 13 13 13 13 13 13 13 13 13 13 14 15 16 17 16 13 13 15 18 21 29 35 36 18 -1 -14 -11 11 19 19 16 16 14 12 10 8 5 3 1 2 4 8 13 17
12 11 11 10 10 10 11 11 11 11 11 11 11 10 10 10 11 11 12 12 13 13 13 13 14 15 15 15 15 15 14 14 14 14 15 15 16 18 18 15 13 17 22 25 26 28 30 29 17 2 -9 -5 9 16 19 21 21 18 13 8 4 2 2 3 6 10 14 18 18
12 12 11 10 11 11 11 11 11 11 11 11 10 10 11 11 12 12 13 14 14 14 15 15 16 17 17 17 17 17 16 16 16 16 16 17 18 20 19 15 17 24 30 28 24 22 22 21 14 6 1 3 6 9 13 17 15 12 9 6 5 6 7 10 15 18 20 20 18
12 12 11 11 11 11 12 11 11 11 10 10 10 11 12 12 13 13 15 16 16 17 18 19 19 19 19 20 19 19 18 18 17 17 17 18 21 22 20 17 25 31 31 21 16 14 14 14 9 7 6 7 4 4 6 7 4 4 5 8 10 11 13 15 18 19 19 18 16
12 12 11 11 11 11 11 11 10 10 10 10 11 12 13 13 14 15 17 18 18 19 20 21 21 21 21 21 21 20 20 19 19 19 20 21 23 23 22 20 32 32 23 11 10 12 13 10 5 3 3 6 4 6 8 5 3 5 8 12 13 13 13 13 13 12 12 13 13
12 12 11 11 11 11 10 10 10 10 11 11 13 14 15 15 16 17 19 21 21 22 22 22 22 22 21 21 21 21 21 21 21 22 22 23 25 25 24 25 34 25 12 9 11 15 17 12 4 -1 -3 -1 2 8 11 7 7 8 9 10 9 8 8 8 7 7 7 7 9
12 12 12 11 11 10 10 9 10 11 12 13 14 15 16 17 18 19 21 23 23 22 21 20 20 21 21 20 21 22 22 23 24 25 25 27 28 26 25 30 30 17 7 14 18 20 20 16 10 4 -2 -10 -8 -2 3 2 2 1 1 0 0 2 4 5 5 5 5 4 5
12 12 12 11 11 10 10 11 12 13 14 15 16 16 17 18 19 21 22 23 22 21 20 19 19 19 19 20 20 22 23 25 26 27 28 30 29 27 27 33 22 9 4 20 24 23 19 15 14 14 8 -6 -10 -9 -6 -6 -5 -4 -3 -2 -0 2 5 6 6 5 4 3 4
13 13 12 12 12 12 12 13 14 14 15 15 16 16 17 18 21 23 23 21 20 19 18 18 18 18 18 19 20 21 23 26 28 30 31 32 30 28 28 34 15 1 1 20 25 22 16 14 15 18 17 9 5 1 -1 -2 0 3 4 5 7 9 10 8 7 6 5 4 4
14 14 13 13 13 14 14 14 14 14 15 15 15 16 18 20 22 23 21 19 17 16 16 16 16 16 17 18 19 21 23 27 30 32 33 34 30 29 30 36 11 -0 2 16 20 14 10 17 22 26 27 24 21 17 14 13 14 14 14 14 15 14 13 10 8 7 6 6 6
16 15 15 14 14 14 13 13 13 14 14 14 15 17 20 22 23 22 19 16 14 14 13 13 13 15 17 18 20 22 24 27 30 32 34 34 32 33 35 35 12 7 10 13 12 4 -1 6 28 35 34 29 26 25 24 25 24 22 21 20 20 17 14 10 8 7 8 8 9
17 16 15 14 13 13 12 12 13 13 14 15 17 19 22 24 23 20 16 12 11 11 10 10 12 15 18 21 22 23 25 27 30 32 34 35 37 39 36 24 14 18 23 17 6 -5 -10 -3 34 38 27 22 23 25 27 30 27 24 21 21 21 18 14 10 10 10 11 13 14
16 15 14 13 12 11 11 12 13 14 14 15 18 22 24 25 22 17 12 9 9 9 9 10 14 18 22 24 25 25 26 27 29 32 36 41 42 34 21 7 18 26 28 21 0 -10 -6 11 45 37 18 17 20 23 26 27 22 18 17 20 17 13 9 10 12 13 15 17 18
14 14 13 12 11 11 11 13 13 13 14 16 19 24 26 26 19 13 8 7 7 8 9 12 17 22 25 26 27 27 27 27 29 33 38 43 31 10 -6 -4 20 31 30 18 -6 -9 3 25 27 18 11 20 23 23 22 21 14 12 13 17 12 7 7 12 13 15 16 18 19
14 13 12 11 11 11 12 12 12 13 14 16 21 25 27 25 17 11 7 6 7 8 10 14 20 23 25 26 27 27 26 26 29 33 36 35 11 -11 -21 -8 15 30 30 8 -10 -4 12 24 10 6 13 31 32 27 19 15 8 8 11 13 9 8 10 14 14 14 15 17 19
14 13 12 11 12 12 12 12 12 13 14 17 22 26 28 25 17 11 6 6 7 9 12 16 20 22 24 26 27 26 25 24 29 34 34 26 0 -17 -20 -5 13 29 29 0 -8 10 29 25 14 13 20 32 29 22 14 8 6 8 12 15 14 13 12 13 13 14 15 16 18
14 13 12 13 12 12 12 12 12 12 14 17 22 27 29 27 18 11 7 6 8 10 12 14 17 19 22 25 27 25 24 23 30 35 34 21 -6 -21 -20 -1 13 25 22 -10 -3 18 34 24 23 23 23 27 19 12 6 5 7 11 16 22 21 19 14 10 10 11 13 14 14
14 14 13 13 12 12 12 12 11 12 14 18 23 29 32 29 19 12 7 7 9 9 10 10 13 16 19 23 26 25 24 24 32 35 30 14 -12 -24 -21 -4 6 19 19 -10 11 27 34 28 29 26 22 22 16 9 4 6 9 15 23 30 27 21 14 8 6 6 8 9 8
15 15 14 14 13 13 12 12 11 12 15 20 26 32 33 30 20 12 8 8 8 7 7 8 10 13 16 22 25 26 25 27 33 33 25 7 -15 -24 -21 -7 -4 3 5 -5 13 28 34 29 31 26 20 19 18 12 7 5 11 19 26 25 20 16 12 9 6 4 3 4 3
16 15 15 14 14 14 13 12 12 14 18 23 29 33 34 30 19 12 8 7 7 7 7 8 8 10 15 20 23 25 26 28 33 32 22 4 -15 -24 -23 -12 -9 -5 -1 1 17 32 39 30 30 23 16 16 17 14 9 4 12 17 17 9 5 3 3 4 6 5 3 2 0
17 17 16 15 15 14 13 12 13 16 20 26 31 34 34 29 19 12 8 7 7 7 6 4 4 8 14 20 21 22 24 28 34 33 24 7 -11 -23 -27 -22 -17 -12 -6 -2 12 29 40 31 30 22 15 13 16 14 9 4 5 4 0 -6 -7 -7 -4 0 3 3 2 -1 -3
18 18 17 16 15 13 13 12 14 17 21 27 32 34 33 28 19 12 8 7 6 5 3 1 3 8 14 19 19 19 21 26 34 37 30 14 -5 -18 -26 -26 -23 -19 -15 -10 2 22 36 34 32 24 16 12 15 14 10 2 -4 -10 -15 -18 -14 -9 -3 1 -3 -5 -7 -8 -9
19 18 17 16 14 13 12 13 15 18 22 27 31 33 32 28 20 13 8 5 4 1 -0 -0 3 9 14 18 17 16 16 20 32 39 38 25 5 -10 -19 -23 -23 -25 -24 -18 -4 13 27 33 32 26 19 14 15 15 13 5 -6 -15 -21 -21 -16 -11 -8 -8 -11 -13 -13 -14 -13
19 18 16 15 14 13 13 13 15 19 23 28 31 32 31 28 20 14 8 4 2 -0 -1 -0 4 9 14 17 17 14 12 14 24 36 43 39 21 5 -7 -15 -17 -22 -25 -24 -13 -0 14 28 30 26 21 16 16 16 16 11 2 -9 -17 -20 -17 -14 -12 -12 -11 -10 -10 -10 -10
19 18 16 14 14 13 13 14 16 20 24 28 30 31 30 26 19 13 7 3 1 -0 -0 2 5 9 13 17 18 16 12 10 15 26 37 45 36 24 11 1 -1 -7 -15 -22 -20 -13 -1 19 24 24 21 18 15 14 15 15 10 4 -4 -11 -13 -14 -12 -10 -8 -6 -5 -5 -4
19 18 16 14 14 13 13 14 17 21 24 28 30 30 29 25 18 11 5 2 0 0 1 3 5 8 13 18 21 20 16 11 11 15 23 33 38 35 26 15 16 11 2 -11 -14 -15 -9 11 18 19 17 16 14 11 10 11 11 10 7 3 -1 -4 -5 -5 -4 -3 -2 -2 -1
19 18 16 15 14 13 14 15 18 21 25 27 29 28 27 23 16 9 4 1 0 1 3 4 5 9 13 19 22 23 20 14 9 8 10 13 20 25 28 24 28 25 18 5 -3 -8 -6 10 16 17 15 14 13 10 8 7 7 6 6 6 5 4 3 2 2 2 1 1 1
19 19 17 16 14 14 14 16 19 22 25 27 28 27 25 21 14 8 4 2 3 4 5 4 5 8 13 18 23 25 24 18 10 5 3 3 5 10 15 21 28 32 28 14 5 1 3 14 19 20 20 20 19 17 14 11 8 5 4 3 4 5 6 6 6 6 6 5 5
19 19 18 17 16 15 15 17 19 23 26 28 28 26 23 19 13 9 8 8 8 6 4 3 5 8 12 17 22 25 25 21 12 5 1 0 2 4 7 11 17 24 25 15 7 6 9 13 18 22 24 26 29 30 28 25 19 14 10 6 5 4 5 5 6 7 8 7 7
Height
3030 3027 3025 3022 3020 3018 3016 3013 3011 3008 3006 3004 3001 2999 2997 2995 2993 2991 2989 2987 2984 2982 2980 2979 2977 2975 2973 2972 2970 2968 2966 2965 2963 2962 2960 2959 2957 2956 2954 2953 2952 2951 2950 2948 2947 2945 2944 2942 2941 2940 2938 2937 2937 2936 2935 2934 2934 2933 2933 2932 2933 2933 2933 2933 2934 2934 2935 2935 2935
3028 3026 3023 3021 3018 3016 3014 3012 3009 3007 3004 3002 3000 2997 2995 2993 2991 2989 2987 2985 2982 2980 2978 2977 2975 2973 2971 2969 2968 2966 2964 2962 2961 2960 2958 2957 2955 2954 2952 2951 2950 2949 2947 2946 2945 2943 2942 2940 2939 2937 2936 2935 2934 2934 2933 2933 2932 2931 2931 2931 2931 2931 2932 2932 2932 2932 2933 2933 2933
3026 3024 3022 3019 3017 3015 3012 3010 3008 3005 3003 3000 2998 2996 2993 2991 2989 2987 2985 2982 2981 2978 2976 2974 2972 2971 2969 2967 2966 2964 2962 2960 2959 2957 2956 2954 2953 2952 2950 2949 2948 2947 2946 2944 2943 2941 2940 2938 2937 2935 2934 2933 2932 2932 2932 2931 2930 2929 2929 2929 2930 2930 2930 2930 2931 2931 2931 2931 2931
3025 3022 3020 3017 3015 3013 3010 3008 3006 3003 3001 2998 2996 2994 2991 2989 2987 2985 2982 2981 2978 2976 2974 2972 2970 2968 2967 2965 2963 2962 2960 2958 2957 2955 2953 2952 2951 2950 2948 2947 2946 2945 2943 2942 2941 2939 2938 2936 2935 2933 2932 2932 2931 2931 2930 2929 2928 2928 2928 2928 2928 2928 2928 2928 2929 2929 2929 2929 2929
3023 3021 3018 3016 3013 3011 3008 3006 3003 3001 2999 2997 2994 2992 2989 2987 2985 2982 2980 2978 2976 2974 2972 2970 2968 2966 2964 2962 2961 2959 2957 2956 2954 2953 2951 2950 2949 2947 2946 2945 2944 2942 2942 2940 2939 2938 2936 2935 2933 2932 2931 2930 2930 2930 2929 2927 2927 2927 2927 2927 2927 2927 2927 2927 2927 2927 2927 2927 2927
3021 3018 3016 3014 3011 3009 3007 3004 3002 2999 2997 2994 2992 2990 2987 2985 2983 2981 2978 2976 2974 2972 2970 2968 2966 2964 2962 2960 2958 2957 2955 2954 2952 2951 2949 2947 2946 2945 2944 2943 2942 2941 2939 2938 2937 2936 2934 2933 2932 2931 2930 2930 2930 2929 2927 2926 2926 2925 2925 2925 2925 2925 2925 2926 2925 2925 2925 2925 2926
3019 3017 3014 3012 3009 3007 3005 3002 3000 2997 2995 2993 2990 2988 2986 2983 2981 2979 2977 2974 2972 2970 2968 2966 2964 2962 2960 2958 2956 2954 2953 2951 2950 2948 2947 2945 2944 2943 2942 2941 2940 2938 2937 2937 2935 2934 2933 2932 2930 2930 2929 2929 2929 2927 2926 2925 2924 2924 2924 2923 2923 2924 2924 2924 2924 2924 2924 2924 2924
3018 3015 3013 3010 3008 3005 3003 3001 2998 2996 2993 2991 2989 2986 2984 2982 2979 2977 2975 2972 2970 2968 2966 2964 2962 2959 2957 2956 2954 2952 2950 2949 2947 2946 2944 2943 2942 2940 2939 2938 2937 2937 2935 2934 2933 2932 2931 2930 2929 2929 2929 2928 2927 2926 2925 2924 2923 2922 2922 2922 2922 2922 2923 2923 2923 2923 2923 2923 2922
3017 3014 3011 3009 3007 3004 3002 2999 2997 2994 2992 2989 2987 2985 2982 2980 2977 2975 2972 2970 2968 2966 2964 2962 2959 2957 2955 2953 2951 2949 2948 2946 2945 2943 2942 2941 2939 2938 2937 2936 2935 2934 2933 2932 2932 2931 2930 2929 2928 2928 2928 2927 2927 2925 2924 2922 2922 2921 2921 2921 2921 2922 2922 2922 2922 2922 2922 2922 2921
3015 3012 3010 3007 3005 3002 3000 2998 2995 2993 2990 2988 2985 2983 2980 2978 2975 2973 2970 2968 2966 2964 2961 2959 2957 2955 2953 2951 2949 2947 2945 2943 2942 2941 2939 2938 2937 2936 2935 2934 2933 2932 2931 2931 2930 2929 2928 2927 2927 2927 2927 2926 2925 2924 2922 2921 2920 2920 2920 2920 2920 2921 2921 2922 2921 2921 2921 2920 2920
3014 3011 3009 3006 3004 3001 2999 2996 2994 2991 2988 2986 2983 2981 2978 2976 2973 2970 2968 2966 2963 2961 2959 2957 2955 2952 2950 2948 2946 2944 2942 2941 2939 2938 2937 2936 2935 2934 2933 2932 2931 2930 2929 2928 2927 2927 2926 2926 2926 2926 2926 2925 2924 2922 2921 2920 2920 2920 2920 2920 2920 2920 2920 2920 2920 2920 2920 2920 2919
3012 3010 3007 3005 3002 3000 2997 2994 2992 2989 2987 2984 2981 2978 2976 2973 2970 2968 2965 2963 2961 2958 2956 2954 2952 2950 2947 2946 2944 2942 2940 2938 2937 2935 2934 2933 2932 2931 2931 2930 2929 2928 2927 2926 2926 2925 2925 2925 2925 2925 2925 2924 2922 2920 2919 2919 2919 2919 2919 2919 2920 2920 2920 2919 2919 2919 2919 2919 2918
3011 3008 3006 3003 3000 2998 2995 2992 2990 2987 2984 2981 2978 2976 2973 2971 2968 2965 2963 2961 2958 2956 2954 2952 2949 2947 2945 2943 2941 2939 2937 2935 2934 2932 2931 2930 2929 2929 2928 2928 2927 2927 2926 2924 2924 2923 2923 2923 2923 2924 2923 2923 2921 2919 2918 2918 2918 2919 2919 2919 2919 2919 2919 2918 2918 2918 2918 2917 2917
3009 3007 3004 3001 2998 2996 2993 2990 2987 2984 2982 2979 2976 2973 2971 2968 2966 2963 2960 2958 2956 2953 2951 2949 2947 2944 2942 2940 2938 2936 2934 2932 2931 2929 2928 2928 2927 2927 2926 2926 2925 2925 2924 2923 2922 2922 2922 2922 2922 2922 2922 2921 2920 2918 2917 2917 2917 2918 2918 2918 2918 2918 2917 2917 2917 2917 2916 2916 2915
3008 3005 3002 2999 2996 2993 2991 2988 2985 2982 2979 2977 2974 2971 2968 2966 2963 2961 2958 2956 2953 2951 2949 2946 2944 2942 2940 2937 2935 2933 2932 2930 2928 2927 2926 2925 2925 2925 2924 2924 2924 2923 2922 2921 2921 2920 2920 2920 2921 2921 2921 2920 2918 2917 2917 2917 2917 2917 2917 2917 2917 2917 2916 2916 2916 2915 2915 2914 2914
3006 3003 3000 2997 2994 2992 2988 2986 2983 2980 2977 2975 2972 2969 2966 2964 2961 2958 2956 2953 2951 2949 2946 2944 2942 2939 2937 2935 2933 2931 2929 2927 2926 2924 2923 2923 2923 2923 2923 2922 2922 2922 2921 2921 2920 2919 2919 2919 2920 2920 2920 2918 2917 2916 2916 2916 2916 2916 2916 2916 2916 2915 2915 2915 2914 2914 2913 2913 2912
3004 3001 2998 2995 2992 2990 2987 2984 2981 2978 2976 2973 2970 2967 2965 2962 2959 2957 2954 2951 2948 2946 2944 2942 2939 2937 2935 2932 2930 2928 2926 2925 2923 2922 2921 2921 2921 2921 2921 2921 2921 2921 2920 2920 2919 2918 2918 2918 2919 2919 2918 2917 2916 2916 2915 2915 2915 2915 2915 2915 2915 2914 2914 2913 2913 2912 2912 2912 2911
3002 3000 2997 2994 2991 2988 2985 2982 2980 2977 2974 2972 2968 2966 2963 2960 2957 2955 2952 2949 2947 2944 2942 2939 2937 2935 2932 2930 2928 2926 2924 2922 2921 2920 2919 2918 2918 2919 2919 2920 2920 2920 2919 2919 2918 2917 2917 2917 2917 2917 2917 2916 2915 2914 2914 2914 2914 2914 2914 2914 2914 2913 2913 2912 2912 2911 2911 2911 2910
3001 2998 2996 2993 2990 2987 2984 2982 2979 2976 2973 2970 2967 2964 2961 2958 2955 2952 2950 2947 2945 2942 2940 2937 2935 2933 2931 2928 2926 2924 2922 2920 2919 2917 2917 2917 2917 2917 2917 2918 2918 2919 2919 2918 2917 2917 2917 2917 2917 2916 2916 2915 2914 2913 2913 2913 2913 2913 2913 2913 2913 2912 2912 2911 2911 2910 2910 2910 2910
3000 2997 2995 2992 2989 2986 2983 2980 2977 2974 2972 2968 2965 2962 2959 2956 2953 2951 2948 2945 2943 2941 2938 2936 2933 2931 2929 2927 2925 2922 2920 2918 2917 2916 2915 2915 2915 2915 2916 2917 2917 2918 2918 2917 2917 2917 2917 2916 2916 2915 2914 2913 2913 2912 2912 2912 2912 2912 2912 2912 2912 2912 2911 2910 2910 2910 2909 2909 2909
2999 2997 2994 2991 2988 2985 2982 2979 2976 2973 2970 2967 2963 2960 2957 2954 2952 2949 2947 2944 2942 2939 2937 2935 2932 2930 2928 2925 2923 2921 2919 2917 2915 2914 2913 2913 2913 2914 2914 2915 2916 2917 2917 2917 2916 2916 2916 2916 2915 2914 2913 2913 2912 2912 2912 2912 2912 2911 2911 2911 2911 2910 2910 2909 2909 2909 2908 2908 2908
2999 2996 2993 2990 2987 2984 2981 2978 2975 2971 2968 2965 2962 2959 2956 2953 2950 2948 2945 2943 2941 2939 2936 2934 2932 2929 2927 2924 2922 2920 2917 2916 2914 2913 2912 2912 2912 2912 2913 2914 2916 2916 2916 2916 2915 2915 2915 2915 2913 2913 2912 2912 2912 2911 2911 2911 2910 2910 2909 2909 2909 2909 2908 2908 2908 2908 2907 2907 2907
2998 2995 2992 2989 2986 2982 2979 2976 2973 2970 2967 2963 2960 2957 2954 2952 2949 2947 2945 2942 2940 2938 2936 2933 2931 2928 2926 2923 2921 2918 2916 2915 2913 2912 2912 2911 2911 2912 2912 2914 2915 2916 2915 2915 2915 2914 2914 2913 2912 2911 2911 2911 2910 2910 2909 2909 2909 2908 2908 2909 2909 2908 2907 2907 2907 2907 2906 2906 2905
2997 2994 2990 2987 2984 2981 2978 2975 2972 2969 2966 2962 2959 2956 2953 2951 2948 2946 2944 2942 2940 2937 2935 2932 2930 2927 2924 2922 2919 2917 2915 2914 2912 2912 2911 2911 2911 2912 2913 2914 2915 2915 2914 2914 2914 2913 2912 2912 2912 2911 2910 2909 2908 2908 2908 2908 2908 2908 2908 2908 2908 2907 2907 2906 2906 2906 2905 2905 2904
2995 2992 2989 2986 2983 2980 2977 2974 2971 2968 2965 2962 2958 2956 2952 2950 2948 2946 2944 2942 2940 2937 2935 2932 2929 2926 2923 2921 2918 2917 2915 2913 2912 2911 2911 2911 2911 2912 2913 2914 2914 2914 2913 2914 2913 2913 2912 2912 2915 2912 2909 2908 2908 2908 2908 2908 2908 2908 2908 2908 2908 2907 2905 2905 2905 2905 2904 2904 2903
2994 2991 2988 2985 2982 2979 2976 2973 2970 2967 2964 2961 2958 2955 2952 2949 2947 2946 2944 2942 2939 2937 2934 2932 2928 2925 2923 2920 2918 2916 2914 2913 2912 2911 2911 2911 2911 2912 2912 2913 2912 2912 2912 2913 2913 2912 2912 2915 2916 2912 2908 2909 2908 2908 2908 2908 2908 2908 2908 2908 2907 2906 2904 2905 2904 2904 2903 2903 2902
2993 2990 2987 2984 2981 2978 2975 2972 2969 2966 2963 2960 2957 2954 2951 2949 2947 2945 2944 2942 2939 2937 2934 2931 2928 2925 2923 2920 2918 2916 2915 2913 2912 2912 2911 2911 2911 2912 2912 2912 2912 2912 2912 2912 2913 2913 2914 2916 2913 2910 2908 2908 2908 2908 2909 2909 2908 2908 2908 2907 2906 2905 2904 2904 2904 2903 2903 2902 2902
2992 2989 2986 2983 2980 2977 2974 2972 2968 2966 2962 2959 2956 2953 2951 2949 2947 2945 2944 2942 2939 2937 2934 2931 2928 2926 2923 2921 2918 2917 2915 2914 2913 2912 2911 2911 2911 2912 2912 2912 2911 2911 2911 2912 2913 2916 2916 2913 2911 2909 2908 2908 2908 2909 2909 2909 2908 2908 2907 2907 2906 2905 2904 2904 2903 2903 2902 2902 2901
2991 2988 2986 2982 2980 2977 2974 2971 2968 2965 2962 2959 2956 2953 2951 2949 2947 2945 2944 2942 2939 2937 2934 2931 2929 2926 2924 2922 2919 2917 2916 2915 2914 2913 2912 2911 2911 2912 2912 2912 2911 2911 2911 2911 2916 2917 2915 2911 2909 2909 2908 2908 2909 2909 2909 2909 2909 2908 2907 2906 2905 2904 2903 2903 2903 2903 2902 2902 2901
2991 2988 2985 2982 2979 2976 2973 2970 2967 2964 2962 2958 2956 2953 2950 2948 2947 2945 2943 2942 2939 2937 2934 2932 2930 2927 2925 2923 2921 2919 2917 2916 2915 2914 2912 2912 2912 2912 2912 2912 2911 2911 2911 2912 2916 2917 2914 2910 2909 2908 2908 2908 2909 2909 2910 2910 2909 2908 2907 2905 2904 2903 2903 2903 2902 2902 2902 2901 2901
2991 2988 2985 2982 2979 2976 2973 2970 2967 2964 2961 2958 2955 2952 2950 2948 2946 2945 2943 2942 2940 2937 2935 2933 2931 2929 2927 2924 2922 2921 2919 2917 2916 2915 2914 2913 2913 2913 2913 2912 2912 2911 2911 2912 2916 2916 2913 2909 2908 2908 2908 2908 2909 2909 2910 2910 2909 2908 2906 2905 2904 2903 2903 2903 2902 2902 2902 2901 2901
2991 2987 2985 2982 2979 2976 2973 2970 2967 2964 2961 2958 2955 2952 2950 2948 2947 2945 2944 2942 2940 2938 2936 2934 2932 2930 2927 2926 2924 2922 2920 2919 2917 2916 2915 2914 2914 2914 2913 2912 2912 2911 2911 2912 2916 2916 2912 2909 2908 2908 2908 2908 2908 2909 2909 2910 2909 2908 2906 2905 2903 2903 2903 2902 2902 2902 2902 2901 2900
2991 2987 2985 2982 2979 2976 2973 2970 2967 2964 2961 2957 2955 2952 2950 2948 2947 2946 2944 2942 2941 2939 2937 2935 2933 2931 2928 2927 2925 2923 2922 2920 2919 2918 2917 2916 2915 2914 2914 2912 2912 2912 2912 2912 2916 2916 2913 2909 2909 2909 2908 2908 2908 2909 2909 2909 2909 2908 2906 2904 2903 2902 2902 2902 2902 2901 2901 2901 2900
2991 2987 2985 2982 2978 2976 2973 2970 2967 2963 2960 2957 2954 2952 2950 2948 2947 2946 2944 2943 2941 2940 2938 2936 2934 2932 2930 2928 2927 2925 2923 2922 2921 2919 2918 2917 2916 2915 2914 2913 2912 2912 2912 2913 2915 2916 2914 2910 2909 2909 2909 2909 2909 2909 2909 2908 2908 2908 2906 2905 2904 2903 2902 2902 2902 2901 2901 2900 2900
2991 2987 2984 2982 2978 2975 2972 2969 2966 2963 2960 2957 2954 2952 2950 2948 2947 2946 2945 2943 2942 2941 2939 2937 2935 2933 2932 2930 2928 2927 2925 2924 2922 2921 2920 2918 2917 2916 2915 2914 2913 2913 2913 2913 2915 2916 2915 2911 2910 2910 2909 2909 2909 2909 2909 2908 2908 2907 2907 2905 2905 2904 2903 2902 2902 2902 2901 2900 2900
2990 2987 2984 2981 2978 2975 2972 2969 2966 2963 2960 2957 2954 2952 2950 2948 2947 2946 2945 2944 2943 2941 2939 2938 2936 2934 2932 2931 2929 2928 2927 2925 2923 2922 2921 2920 2919 2918 2917 2916 2914 2914 2913 2913 2915 2916 2914 2912 2911 2910 2910 2909 2909 2909 2909 2909 2908 2907 2907 2906 2905 2904 2904 2903 2902 2902 2901 2900 2900
2991 2987 2984 2981 2978 2975 2972 2969 2966 2962 2960 2957 2955 2952 2951 2949 2948 2947 2946 2944 2943 2941 2940 2938 2937 2935 2933 2931 2930 2929 2928 2927 2925 2923 2922 2921 2920 2919 2918 2917 2916 2915 2914 2913 2916 2916 2914 2912 2912 2911 2911 2910 2910 2910 2909 2909 2908 2907 2907 2906 2905 2905 2904 2903 2902 2902 2901 2901 2900
2991 2987 2984 2982 2978 2976 2972 2969 2966 2963 2960 2957 2955 2953 2951 2950 2948 2947 2946 2944 2943 2942 2940 2938 2937 2935 2933 2932 2931 2930 2929 2928 2926 2925 2923 2922 2921 2920 2919 2918 2917 2916 2915 2915 2916 2916 2914 2911 2912 2912 2912 2911 2911 2910 2910 2909 2908 2908 2907 2906 2906 2905 2904 2903 2902 2902 2901 2901 2900
2991 2988 2985 2982 2979 2976 2972 2969 2966 2963 2960 2958 2956 2953 2952 2950 2949 2948 2947 2945 2944 2942 2940 2939 2937 2936 2934 2933 2932 2931 2930 2929 2927 2926 2925 2923 2923 2922 2921 2919 2918 2917 2916 2917 2917 2916 2914 2912 2912 2912 2912 2912 2911 2911 2910 2909 2908 2908 2907 2907 2906 2905 2904 2903 2902 2902 2901 2900 2900
2992 2989 2986 2982 2979 2976 2973 2970 2967 2964 2961 2959 2957 2954 2953 2951 2950 2949 2947 2946 2944 2943 2941 2939 2938 2937 2935 2934 2932 2931 2930 2929 2928 2927 2926 2925 2924 2923 2922 2921 2919 2918 2918 2917 2917 2916 2914 2913 2912 2912 2911 2911 2911 2911 2910 2909 2908 2907 2907 2906 2905 2905 2904 2903 2902 2901 2900 2900 2899
2993 2990 2987 2983 2980 2977 2974 2971 2968 2965 2962 2960 2957 2956 2954 2952 2951 2950 2948 2947 2945 2943 2942 2940 2938 2937 2936 2934 2933 2932 2931 2930 2929 2928 2927 2926 2925 2924 2922 2921 2920 2920 2919 2918 2917 2916 2915 2914 2913 2912 2911 2911 2910 2910 2909 2908 2907 2907 2906 2905 2905 2904 2903 2902 2901 2900 2900 2899 2898